Time,TemperatureF,DewpointF,PressureIn,WindDirection,WindDirectionDegrees,WindSpeedMPH,WindSpeedGustMPH,Humidity,HourlyPrecipIn,Conditions,Clouds,dailyrainin,SoftwareType,DateUTC
2013-02-21 00:14:00,22.2,21.0,30.04,WNW,283,0.0,1.0,95,0.00,,,0.00,weatherlink.com 1.10,2013-02-21 08:14:00,
2013-02-21 00:29:00,22.1,21.0,30.04,WNW,284,0.0,0.0,95,0.00,,,0.00,weatherlink.com 1.10,2013-02-21 08:29:00,
2013-02-21 00:44:00,21.9,21.0,30.04,SSW,212,0.0,1.0,94,0.00,,,0.00,weatherlink.com 1.10,2013-02-21 08:44:00,
2013-02-21 00:59:00,21.9,21.0,30.04,WNW,283,0.0,1.0,95,0.00,,,0.00,weatherlink.com 1.10,2013-02-21 08:59:00,
2013-02-21 01:14:00,21.6,20.0,30.05,NW,304,0.0,0.0,95,0.00,,,0.00,weatherlink.com 1.10,2013-02-21 09:14:00,
2013-02-21 01:29:00,21.4,20.0,30.06,WSW,248,0.0,1.0,94,0.00,,,0.00,weatherlink.com 1.10,2013-02-21 09:29:00,
2013-02-21 01:44:00,21.4,20.0,30.06,SW,235,0.0,1.0,95,0.00,,,0.00,weatherlink.com 1.10,2013-02-21 09:44:00,
2013-02-21 01:59:00,21.3,20.0,30.06,WSW,257,0.0,1.0,94,0.00,,,0.00,weatherlink.com 1.10,2013-02-21 09:59:00,
2013-02-21 02:14:00,21.1,20.0,30.06,WSW,256,0.0,0.0,94,0.00,,,0.00,weatherlink.com 1.10,2013-02-21 10:14:00,
2013-02-21 02:29:00,21.6,20.0,30.06,NNE,22,0.0,2.0,94,0.00,,,0.00,weatherlink.com 1.10,2013-02-21 10:29:00,
2013-02-21 02:44:00,22.5,21.0,30.06,North,9,0.0,1.0,93,0.00,,,0.00,weatherlink.com 1.10,2013-02-21 10:44:00,
2013-02-21 02:59:00,22.9,21.0,30.06,West,276,0.0,1.0,93,0.00,,,0.00,weatherlink.com 1.10,2013-02-21 10:59:00,
2013-02-21 03:14:00,23.3,21.0,30.06,North,9,0.0,1.0,92,0.00,,,0.00,weatherlink.com 1.10,2013-02-21 11:14:00,
2013-02-21 03:29:00,23.5,22.0,30.06,North,9,0.0,0.0,92,0.00,,,0.00,weatherlink.com 1.10,2013-02-21 11:29:00,
2013-02-21 03:44:00,23.8,22.0,30.07,West,269,0.0,1.0,92,0.00,,,0.00,weatherlink.com 1.10,2013-02-21 11:44:00,
2013-02-21 03:59:00,23.9,22.0,30.07,West,269,0.0,0.0,93,0.00,,,0.00,weatherlink.com 1.10,2013-02-21 11:59:00,
2013-02-21 04:14:00,24.0,22.0,30.08,West,271,0.0,1.0,92,0.00,,,0.00,weatherlink.com 1.10,2013-02-21 12:14:00,
2013-02-21 04:29:00,24.0,22.0,30.08,West,271,0.0,0.0,92,0.00,,,0.00,weatherlink.com 1.10,2013-02-21 12:29:00,
2013-02-21 04:44:00,24.2,22.0,30.09,West,271,0.0,0.0,92,0.00,,,0.00,weatherlink.com 1.10,2013-02-21 12:44:00,
2013-02-21 04:59:00,24.3,22.0,30.09,ESE,105,0.0,1.0,92,0.00,,,0.00,weatherlink.com 1.10,2013-02-21 12:59:00,
2013-02-21 05:15:00,24.2,22.0,30.09,West,280,0.0,1.0,92,0.00,,,0.00,weatherlink.com 1.10,2013-02-21 13:15:00,
2013-02-21 05:30:00,24.2,23.0,30.09,West,280,0.0,0.0,93,0.00,,,0.00,weatherlink.com 1.10,2013-02-21 13:30:00,
2013-02-21 05:44:00,24.0,22.0,30.09,West,280,0.0,0.0,93,0.00,,,0.00,weatherlink.com 1.10,2013-02-21 13:44:00,
2013-02-21 05:59:00,24.0,23.0,30.09,West,271,0.0,0.0,94,0.00,,,0.00,weatherlink.com 1.10,2013-02-21 13:59:00,
2013-02-21 06:14:00,24.1,23.0,30.10,West,273,0.0,0.0,94,0.00,,,0.00,weatherlink.com 1.10,2013-02-21 14:14:00,
2013-02-21 06:29:00,24.2,23.0,30.09,West,273,0.0,0.0,94,0.00,,,0.00,weatherlink.com 1.10,2013-02-21 14:29:00,
2013-02-21 06:44:00,23.9,23.0,30.10,SW,235,0.0,1.0,94,0.00,,,0.00,weatherlink.com 1.10,2013-02-21 14:44:00,
2013-02-21 07:00:00,23.2,22.0,30.09,SW,235,0.0,0.0,94,0.00,,,0.00,weatherlink.com 1.10,2013-02-21 15:00:00,
2013-02-21 07:15:00,23.2,22.0,30.10,ESE,114,0.0,0.0,95,0.00,,,0.00,weatherlink.com 1.10,2013-02-21 15:15:00,
2013-02-21 07:29:00,24.1,23.0,30.10,East,83,0.0,0.0,94,0.00,,,0.00,weatherlink.com 1.10,2013-02-21 15:29:00,
2013-02-21 07:45:00,24.4,23.0,30.10,ESE,105,0.0,0.0,94,0.00,,,0.00,weatherlink.com 1.10,2013-02-21 15:45:00,
2013-02-21 08:00:00,25.2,24.0,30.09,SW,233,0.0,0.0,93,0.00,,,0.00,weatherlink.com 1.10,2013-02-21 16:00:00,
2013-02-21 08:15:00,25.8,24.0,30.10,WSW,238,0.0,1.0,92,0.00,,,0.00,weatherlink.com 1.10,2013-02-21 16:15:00,
2013-02-21 08:30:00,26.2,24.0,30.10,East,85,0.0,1.0,91,0.00,,,0.00,weatherlink.com 1.10,2013-02-21 16:30:00,
2013-02-21 08:45:00,26.3,25.0,30.10,East,85,0.0,0.0,93,0.00,,,0.00,weatherlink.com 1.10,2013-02-21 16:45:00,
2013-02-21 09:00:00,26.8,25.0,30.10,East,85,0.0,0.0,92,0.00,,,0.00,weatherlink.com 1.10,2013-02-21 17:00:00,
2013-02-21 09:15:00,27.3,25.0,30.11,East,84,0.0,0.0,91,0.00,,,0.00,weatherlink.com 1.10,2013-02-21 17:15:00,
2013-02-21 09:30:00,27.7,26.0,30.11,East,85,0.0,0.0,92,0.00,,,0.00,weatherlink.com 1.10,2013-02-21 17:30:00,
2013-02-21 09:45:00,28.2,25.0,30.11,East,85,0.0,0.0,89,0.00,,,0.00,weatherlink.com 1.10,2013-02-21 17:45:00,
2013-02-21 10:00:00,29.0,27.0,30.11,East,85,0.0,0.0,93,0.00,,,0.00,weatherlink.com 1.10,2013-02-21 18:00:00,
2013-02-21 10:15:00,30.3,27.0,30.10,East,85,0.0,0.0,87,0.00,,,0.00,weatherlink.com 1.10,2013-02-21 18:15:00,
2013-02-21 10:30:00,30.0,27.0,30.11,East,85,0.0,0.0,88,0.00,,,0.00,weatherlink.com 1.10,2013-02-21 18:30:00,
2013-02-21 10:45:00,30.1,28.0,30.11,ENE,60,0.0,0.0,90,0.00,,,0.00,weatherlink.com 1.10,2013-02-21 18:45:00,
2013-02-21 11:00:00,30.2,28.0,30.11,North,1,0.0,0.0,90,0.00,,,0.00,weatherlink.com 1.10,2013-02-21 19:00:00,
2013-02-21 11:15:00,32.2,30.0,30.10,North,1,0.0,0.0,91,0.00,,,0.00,weatherlink.com 1.10,2013-02-21 19:15:00,
2013-02-21 11:30:00,33.1,29.0,30.10,North,1,0.0,0.0,86,0.00,,,0.00,weatherlink.com 1.10,2013-02-21 19:30:00,
2013-02-21 11:45:00,32.8,29.0,30.09,WSW,253,0.0,0.0,86,0.00,,,0.00,weatherlink.com 1.10,2013-02-21 19:45:00,
2013-02-21 12:00:00,33.5,30.0,30.08,NNE,18,1.0,1.0,87,0.00,,,0.00,weatherlink.com 1.10,2013-02-21 20:00:00,
2013-02-21 12:15:00,33.7,29.0,30.08,NE,46,0.0,1.0,84,0.00,,,0.00,weatherlink.com 1.10,2013-02-21 20:15:00,
2013-02-21 12:30:00,34.0,29.0,30.07,NNE,18,0.0,2.0,82,0.00,,,0.00,weatherlink.com 1.10,2013-02-21 20:30:00,
2013-02-21 12:45:00,33.3,29.0,30.07,West,271,1.0,2.0,85,0.00,,,0.00,weatherlink.com 1.10,2013-02-21 20:45:00,
2013-02-21 13:00:00,33.2,30.0,30.06,NW,309,0.0,0.0,87,0.00,,,0.00,weatherlink.com 1.10,2013-02-21 21:00:00,
2013-02-21 13:15:00,32.9,31.0,30.05,North,10,0.0,1.0,91,0.00,,,0.00,weatherlink.com 1.10,2013-02-21 21:15:00,
2013-02-21 13:30:00,32.7,31.0,30.05,North,10,0.0,0.0,92,0.00,,,0.00,weatherlink.com 1.10,2013-02-21 21:30:00,
2013-02-21 13:45:00,32.9,31.0,30.05,North,10,0.0,0.0,92,0.00,,,0.00,weatherlink.com 1.10,2013-02-21 21:45:00,
2013-02-21 14:00:00,32.7,31.0,30.05,North,11,0.0,0.0,93,0.00,,,0.00,weatherlink.com 1.10,2013-02-21 22:00:00,
2013-02-21 14:16:00,32.4,31.0,30.04,North,11,0.0,0.0,94,0.00,,,0.00,weatherlink.com 1.10,2013-02-21 22:16:00,
2013-02-21 14:30:00,32.7,31.0,30.04,South,186,1.0,2.0,93,0.00,,,0.00,weatherlink.com 1.10,2013-02-21 22:30:00,
2013-02-21 14:46:00,32.5,31.0,30.04,SSE,149,0.0,1.0,93,0.00,,,0.00,weatherlink.com 1.10,2013-02-21 22:46:00,
2013-02-21 15:15:00,32.6,31.0,30.04,SSE,152,0.0,1.0,94,0.00,,,0.00,weatherlink.com 1.10,2013-02-21 23:15:00,
2013-02-21 15:31:00,32.5,31.0,30.04,ESE,115,0.0,1.0,94,0.00,,,0.00,weatherlink.com 1.10,2013-02-21 23:31:00,
2013-02-21 15:46:00,32.4,31.0,30.04,SW,223,0.0,2.0,94,0.00,,,0.00,weatherlink.com 1.10,2013-02-21 23:46:00,
2013-02-21 16:01:00,32.4,31.0,30.05,SE,136,0.0,4.0,95,0.00,,,0.00,weatherlink.com 1.10,2013-02-22 00:01:00,
2013-02-21 16:15:00,32.5,31.0,30.05,East,83,0.0,1.0,95,0.00,,,0.00,weatherlink.com 1.10,2013-02-22 00:15:00,
2013-02-21 16:30:00,32.7,32.0,30.05,ESE,113,0.0,2.0,95,0.00,,,0.00,weatherlink.com 1.10,2013-02-22 00:30:00,
2013-02-21 16:45:00,32.8,32.0,30.05,SE,132,0.0,0.0,95,0.00,,,0.00,weatherlink.com 1.10,2013-02-22 00:45:00,
2013-02-21 17:00:00,32.7,32.0,30.05,ESE,123,1.0,1.0,95,0.00,,,0.00,weatherlink.com 1.10,2013-02-22 01:00:00,
2013-02-21 17:15:00,32.5,31.0,30.05,SSE,165,0.0,1.0,95,0.00,,,0.00,weatherlink.com 1.10,2013-02-22 01:15:00,
2013-02-21 17:31:00,32.4,31.0,30.05,SE,134,0.0,1.0,96,0.00,,,0.00,weatherlink.com 1.10,2013-02-22 01:31:00,
2013-02-21 17:46:00,32.4,31.0,30.06,SE,137,0.0,3.0,95,0.00,,,0.00,weatherlink.com 1.10,2013-02-22 01:46:00,
2013-02-21 18:01:00,32.3,31.0,30.06,East,83,0.0,2.0,95,0.00,,,0.00,weatherlink.com 1.10,2013-02-22 02:01:00,
2013-02-21 18:16:00,32.5,31.0,30.07,ESE,114,0.0,2.0,94,0.00,,,0.00,weatherlink.com 1.10,2013-02-22 02:16:00,
2013-02-21 18:31:00,32.4,31.0,30.08,ESE,110,0.0,1.0,94,0.00,,,0.00,weatherlink.com 1.10,2013-02-22 02:31:00,
2013-02-21 18:46:00,32.5,31.0,30.08,South,184,5.0,5.0,93,0.00,,,0.00,weatherlink.com 1.10,2013-02-22 02:46:00,
2013-02-21 19:01:00,32.6,31.0,30.08,SSE,156,0.0,3.0,93,0.00,,,0.00,weatherlink.com 1.10,2013-02-22 03:01:00,
2013-02-21 19:16:00,32.5,31.0,30.08,SE,134,0.0,2.0,93,0.00,,,0.00,weatherlink.com 1.10,2013-02-22 03:16:00,
2013-02-21 19:31:00,32.3,31.0,30.09,SE,134,0.0,0.0,94,0.00,,,0.00,weatherlink.com 1.10,2013-02-22 03:31:00,
2013-02-21 19:46:00,31.9,31.0,30.09,SE,145,0.0,0.0,95,0.00,,,0.00,weatherlink.com 1.10,2013-02-22 03:46:00,
2013-02-21 20:01:00,31.7,31.0,30.09,SE,145,0.0,0.0,95,0.00,,,0.00,weatherlink.com 1.10,2013-02-22 04:01:00,
2013-02-21 20:16:00,31.6,31.0,30.09,SE,145,0.0,0.0,96,0.00,,,0.00,weatherlink.com 1.10,2013-02-22 04:16:00,
2013-02-21 20:31:00,31.4,30.0,30.08,SE,146,0.0,0.0,96,0.00,,,0.00,weatherlink.com 1.10,2013-02-22 04:31:00,
2013-02-21 20:46:00,31.4,30.0,30.08,South,176,0.0,0.0,96,0.00,,,0.00,weatherlink.com 1.10,2013-02-22 04:46:00,
2013-02-21 21:01:00,31.3,30.0,30.08,SSE,155,0.0,0.0,96,0.00,,,0.00,weatherlink.com 1.10,2013-02-22 05:01:00,
2013-02-21 21:16:00,31.2,30.0,30.08,SE,141,0.0,0.0,96,0.00,,,0.00,weatherlink.com 1.10,2013-02-22 05:16:00,
2013-02-21 21:31:00,31.4,30.0,30.08,SSW,202,0.0,1.0,96,0.00,,,0.00,weatherlink.com 1.10,2013-02-22 05:31:00,
2013-02-21 21:46:00,31.4,30.0,30.09,SSE,168,0.0,0.0,96,0.00,,,0.00,weatherlink.com 1.10,2013-02-22 05:46:00,
2013-02-21 22:01:00,31.3,30.0,30.09,SSE,168,0.0,0.0,96,0.00,,,0.00,weatherlink.com 1.10,2013-02-22 06:01:00,
2013-02-21 22:16:00,31.3,30.0,30.09,ESE,117,0.0,1.0,96,0.00,,,0.00,weatherlink.com 1.10,2013-02-22 06:16:00,
2013-02-21 22:31:00,31.3,31.0,30.09,ESE,117,0.0,0.0,97,0.00,,,0.00,weatherlink.com 1.10,2013-02-22 06:31:00,
2013-02-21 22:46:00,31.4,31.0,30.10,ESE,117,0.0,0.0,97,0.00,,,0.00,weatherlink.com 1.10,2013-02-22 06:46:00,
2013-02-21 23:01:00,31.4,31.0,30.09,ESE,117,0.0,0.0,97,0.00,,,0.00,weatherlink.com 1.10,2013-02-22 07:01:00,
2013-02-21 23:16:00,31.4,31.0,30.09,ESE,117,0.0,0.0,97,0.00,,,0.00,weatherlink.com 1.10,2013-02-22 07:16:00,
2013-02-21 23:31:00,31.5,31.0,30.09,East,101,0.0,0.0,97,0.00,,,0.00,weatherlink.com 1.10,2013-02-22 07:31:00,
2013-02-21 23:46:00,31.6,31.0,30.08,North,360,0.0,0.0,97,0.00,,,0.00,weatherlink.com 1.10,2013-02-22 07:46:00,